KLM615 EHAM-KPDX

Flight info

Callsign KLM615
Flight time N/A
Altitude 34000
Route BERGI L602 SUPUR P1 GODOS DCT ROKAN DCT GIGUL DCT UPNAL DCT RIVOT DCT LESNI DCT WIK DCT BAMRA DCT NALAN/M084F340 DCT 6230N01000W 6530N02000W/M083F360 6730N03000W 69N040W/M083F380 70N050W 70N060W DCT ADSAM/N0484F380 DCT 70N070W 69N080W 6730N09000W 65N100W 60N110W/N0476F400 55N116W DCT LONRO DCT YDC J503 SEA DCT BUWZO KRATR3
Aircraft A333/H-SDE3GHIJ2J3J5M1RVWXY/LB2D1

Departure

Time 2026-04-27 13:07
Airport Amsterdam Airport Schiphol (EHAM)

Arrival

Time N/A
Airport Portland International Airport (KPDX)
Time Latitude Longitude Altitude Speed Heading
2026-04-27 12:29 52.31275 4.75329 3 ft 0 kts 266°
2026-04-27 12:52 52.31275 4.75331 2 ft 2 kts 266°
2026-04-27 12:52 52.31275 4.75373 3 ft 4 kts 276°
2026-04-27 12:53 52.31257 4.75450 2 ft 4 kts 329°
2026-04-27 12:53 52.31246 4.75458 5 ft 1 kts 357°
2026-04-27 12:57 52.31247 4.75458 4 ft 0 kts 357°
2026-04-27 12:57 52.31264 4.75456 2 ft 5 kts 357°
2026-04-27 12:57 52.31323 4.75451 2 ft 11 kts 357°
2026-04-27 12:57 52.31396 4.75439 2 ft 10 kts 340°
2026-04-27 12:58 52.31421 4.75352 3 ft 10 kts 271°
2026-04-27 12:58 52.31418 4.75210 3 ft 15 kts 267°
2026-04-27 12:58 52.31411 4.75016 3 ft 19 kts 267°
2026-04-27 12:58 52.31404 4.74791 3 ft 22 kts 267°
2026-04-27 12:59 52.31397 4.74550 3 ft 20 kts 267°
2026-04-27 12:59 52.31391 4.74375 3 ft 11 kts 267°
2026-04-27 12:59 52.31429 4.74291 3 ft 9 kts 346°
2026-04-27 12:59 52.31497 4.74293 3 ft 12 kts
2026-04-27 13:00 52.31605 4.74303 3 ft 18 kts
2026-04-27 13:00 52.31745 4.74317 3 ft 20 kts
2026-04-27 13:00 52.31884 4.74330 3 ft 19 kts
2026-04-27 13:00 52.31987 4.74333 3 ft 13 kts 350°
2026-04-27 13:01 52.32030 4.74229 3 ft 12 kts 274°
2026-04-27 13:01 52.32034 4.74106 2 ft 16 kts 273°
2026-04-27 13:01 52.32042 4.73904 2 ft 20 kts 273°
2026-04-27 13:01 52.32050 4.73667 3 ft 22 kts 273°
2026-04-27 13:02 52.32063 4.73442 3 ft 19 kts 285°
2026-04-27 13:02 52.32142 4.73281 3 ft 19 kts 319°
2026-04-27 13:02 52.32244 4.73137 3 ft 20 kts 319°
2026-04-27 13:02 52.32361 4.72973 3 ft 24 kts 319°
2026-04-27 13:03 52.32493 4.72788 3 ft 27 kts 319°
2026-04-27 13:03 52.32639 4.72581 3 ft 27 kts 317°
2026-04-27 13:03 52.32764 4.72364 3 ft 25 kts 311°
2026-04-27 13:03 52.32878 4.72152 3 ft 24 kts 311°
2026-04-27 13:04 52.32989 4.71946 3 ft 23 kts 311°
2026-04-27 13:04 52.33092 4.71756 3 ft 20 kts 311°
2026-04-27 13:04 52.33146 4.71581 3 ft 17 kts 269°
2026-04-27 13:04 52.33087 4.71433 3 ft 16 kts 221°
2026-04-27 13:05 52.33005 4.71317 3 ft 15 kts 221°
2026-04-27 13:05 52.32927 4.71206 3 ft 15 kts 221°
2026-04-27 13:05 52.32866 4.71079 2 ft 14 kts 255°
2026-04-27 13:05 52.32865 4.70940 2 ft 9 kts 276°
2026-04-27 13:06 52.32896 4.70898 1 ft 5 kts 352°
2026-04-27 13:06 52.32994 4.70905 0 ft 33 kts
2026-04-27 13:06 52.33422 4.70945 1 ft 89 kts
2026-04-27 13:06 52.34216 4.71017 1 ft 138 kts
2026-04-27 13:07 52.35308 4.71111 130 ft 166 kts
2026-04-27 13:07 52.36430 4.71213 743 ft 165 kts
2026-04-27 13:07 52.37622 4.71325 1284 ft 176 kts
2026-04-27 13:07 52.38880 4.71449 1474 ft 192 kts
2026-04-27 13:08 52.40289 4.71589 1615 ft 210 kts
2026-04-27 13:08 52.41808 4.71667 1777 ft 227 kts 358°
2026-04-27 13:08 52.43539 4.70883 1957 ft 248 kts 330°
2026-04-27 13:08 52.44892 4.69095 2390 ft 252 kts 317°
2026-04-27 13:09 52.46141 4.67036 3002 ft 255 kts 316°
2026-04-27 13:09 52.47378 4.64956 3696 ft 255 kts 315°
2026-04-27 13:09 52.48635 4.62869 4324 ft 257 kts 316°
2026-04-27 13:09 52.49901 4.60786 5010 ft 258 kts 316°
2026-04-27 13:10 52.51180 4.58695 5616 ft 261 kts 318°
2026-04-27 13:10 52.52630 4.56897 6243 ft 262 kts 329°
2026-04-27 13:10 52.54200 4.55363 6887 ft 263 kts 331°
2026-04-27 13:10 52.55799 4.53871 7510 ft 266 kts 331°
2026-04-27 13:11 52.57417 4.52374 8153 ft 268 kts 330°
2026-04-27 13:11 52.59059 4.50852 8718 ft 273 kts 330°
2026-04-27 13:11 52.60690 4.49149 9351 ft 276 kts 321°
2026-04-27 13:11 52.62181 4.47101 9892 ft 282 kts 318°
2026-04-27 13:12 52.63623 4.44957 10447 ft 285 kts 316°
2026-04-27 13:12 52.65095 4.42656 10712 ft 300 kts 315°
2026-04-27 13:12 52.66562 4.40282 10934 ft 315 kts 314°
2026-04-27 13:12 52.68123 4.37699 11123 ft 330 kts 314°
2026-04-27 13:13 52.69777 4.34944 11336 ft 345 kts 314°
2026-04-27 13:13 52.71494 4.32084 11556 ft 357 kts 314°
2026-04-27 13:13 52.73270 4.29148 11922 ft 364 kts 314°
2026-04-27 13:13 52.75072 4.26182 12409 ft 368 kts 314°
2026-04-27 13:14 52.76893 4.23190 12918 ft 370 kts 314°
2026-04-27 13:14 52.78725 4.20182 13434 ft 373 kts 314°
2026-04-27 13:14 52.80570 4.17149 13956 ft 375 kts 314°
2026-04-27 13:14 52.82429 4.14089 14407 ft 378 kts 314°
2026-04-27 13:15 52.84296 4.11010 14857 ft 381 kts 314°
2026-04-27 13:15 52.86177 4.07903 15311 ft 383 kts 314°
2026-04-27 13:15 52.88062 4.04784 15764 ft 385 kts 314°
2026-04-27 13:15 52.89962 4.01635 16206 ft 387 kts 313°
2026-04-27 13:16 52.91866 3.98476 16657 ft 389 kts 313°
2026-04-27 13:16 52.93784 3.95289 17109 ft 391 kts 313°
2026-04-27 13:16 52.95708 3.92089 17535 ft 394 kts 313°
2026-04-27 13:16 52.97648 3.88857 17953 ft 396 kts 313°
2026-04-27 13:17 52.99596 3.85606 18370 ft 398 kts 313°
2026-04-27 13:17 53.01554 3.82336 18778 ft 400 kts 313°
2026-04-27 13:17 53.03519 3.79049 19137 ft 402 kts 313°
2026-04-27 13:17 53.05494 3.75741 19507 ft 403 kts 313°
2026-04-27 13:18 53.06819 3.73521 19762 ft 404 kts 312°
2026-04-27 13:18 53.08801 3.70193 20139 ft 406 kts 312°
2026-04-27 13:18 53.10790 3.66850 20501 ft 407 kts 312°
2026-04-27 13:18 53.13434 3.62398 20974 ft 409 kts 312°
2026-04-27 13:19 53.15434 3.59024 21325 ft 411 kts 312°
2026-04-27 13:19 53.17446 3.55626 21683 ft 412 kts 311°
2026-04-27 13:19 53.18804 3.53330 21943 ft 412 kts 311°
2026-04-27 13:19 53.20819 3.49918 22324 ft 413 kts 311°
2026-04-27 13:20 53.22863 3.46613 22620 ft 417 kts 316°
2026-04-27 13:20 53.25206 3.43703 22957 ft 423 kts 324°
2026-04-27 13:20 53.27839 3.41448 23273 ft 429 kts 332°
2026-04-27 13:20 53.30610 3.39553 23593 ft 432 kts 335°
2026-04-27 13:21 53.33446 3.37829 23892 ft 435 kts 336°
2026-04-27 13:21 53.36354 3.36170 24154 ft 437 kts 337°
2026-04-27 13:21 53.39205 3.34578 24403 ft 439 kts 337°
2026-04-27 13:21 53.42106 3.32955 24663 ft 440 kts 337°
2026-04-27 13:22 53.45014 3.31310 24898 ft 442 kts 337°
2026-04-27 13:22 53.47967 3.29618 25141 ft 443 kts 336°
2026-04-27 13:22 53.50893 3.27925 25398 ft 445 kts 336°
2026-04-27 13:22 53.53824 3.26219 25639 ft 447 kts 336°
2026-04-27 13:23 53.56761 3.24502 25880 ft 448 kts 336°
2026-04-27 13:23 53.59714 3.22771 26106 ft 450 kts 336°
2026-04-27 13:23 53.62677 3.21042 26341 ft 452 kts 338°
2026-04-27 13:23 53.65695 3.19697 26564 ft 458 kts 345°
2026-04-27 13:24 53.68873 3.19022 26787 ft 464 kts 351°
2026-04-27 13:24 53.72107 3.18719 27020 ft 467 kts 353°
2026-04-27 13:24 53.75372 3.18567 27161 ft 471 kts 354°
2026-04-27 13:24 53.78658 3.18501 27379 ft 473 kts 355°
2026-04-27 13:25 53.81997 3.18468 27612 ft 475 kts 355°
2026-04-27 13:25 53.85260 3.18440 27816 ft 476 kts 355°
2026-04-27 13:25 53.88582 3.18404 28023 ft 478 kts 355°
2026-04-27 13:25 53.91909 3.18355 28228 ft 479 kts 355°
2026-04-27 13:26 53.95245 3.18297 28431 ft 481 kts 355°
2026-04-27 13:26 53.98599 3.18232 28600 ft 484 kts 355°
2026-04-27 13:26 54.01972 3.18162 28756 ft 486 kts 355°
2026-04-27 13:26 54.05359 3.18091 28950 ft 487 kts 355°
2026-04-27 13:27 54.08753 3.18020 29184 ft 488 kts 355°
2026-04-27 13:27 54.12139 3.17951 29474 ft 487 kts 355°
2026-04-27 13:27 54.15524 3.17883 29760 ft 486 kts 355°
2026-04-27 13:27 54.18902 3.17814 30039 ft 486 kts 355°
2026-04-27 13:28 54.22286 3.17743 30328 ft 487 kts 355°
2026-04-27 13:28 54.25689 3.17670 30370 ft 491 kts 355°
2026-04-27 13:28 54.29110 3.17598 30556 ft 491 kts 355°
2026-04-27 13:28 54.32514 3.17529 30871 ft 488 kts 355°
2026-04-27 13:29 54.35900 3.17462 31201 ft 485 kts 355°
2026-04-27 13:29 54.39271 3.17395 31508 ft 483 kts 355°
2026-04-27 13:29 54.42623 3.17327 31783 ft 481 kts 355°
2026-04-27 13:29 54.45966 3.17257 32058 ft 480 kts 355°
2026-04-27 13:30 54.49301 3.17187 32249 ft 480 kts 355°
2026-04-27 13:30 54.52641 3.17115 32438 ft 480 kts 355°
2026-04-27 13:30 54.55974 3.16990 32682 ft 477 kts 352°
2026-04-27 13:30 54.59248 3.16290 32940 ft 471 kts 345°
2026-04-27 13:31 54.62392 3.14833 33180 ft 465 kts 336°
2026-04-27 13:31 54.65352 3.12669 33404 ft 461 kts 331°
2026-04-27 13:31 54.68227 3.10250 33633 ft 459 kts 329°
2026-04-27 13:31 54.71064 3.07717 33828 ft 457 kts 329°
2026-04-27 13:32 54.73873 3.05135 33998 ft 458 kts 329°
2026-04-27 13:32 54.76685 3.02521 34071 ft 460 kts 329°
2026-04-27 13:32 54.79506 2.99897 34232 ft 460 kts 329°
2026-04-27 13:32 54.82326 2.97281 34314 ft 461 kts 329°
2026-04-27 13:33 54.87993 2.92047 34314 ft 461 kts 329°
2026-04-27 13:33 54.93658 2.86822 34320 ft 461 kts 329°
2026-04-27 13:34 54.99317 2.81590 34322 ft 461 kts 329°
2026-04-27 13:34 55.04987 2.76331 34316 ft 462 kts 329°
2026-04-27 13:35 55.10660 2.71044 34317 ft 462 kts 330°
2026-04-27 13:35 55.16323 2.65757 34320 ft 461 kts 330°
2026-04-27 13:36 55.21941 2.60500 34317 ft 461 kts 329°
2026-04-27 13:36 55.27592 2.55181 34319 ft 461 kts 330°
2026-04-27 13:37 55.33249 2.49843 34316 ft 461 kts 330°
2026-04-27 13:37 55.38906 2.44493 34321 ft 462 kts 330°
2026-04-27 13:38 55.44138 2.38063 34315 ft 459 kts 319°
2026-04-27 13:38 55.48933 2.30644 34319 ft 459 kts 316°
2026-04-27 13:39 55.53676 2.22974 34323 ft 460 kts 316°
2026-04-27 13:39 55.58357 2.15394 34314 ft 459 kts 317°
2026-04-27 13:40 55.63059 2.07769 34314 ft 459 kts 317°
2026-04-27 13:40 55.67746 2.00106 34312 ft 458 kts 317°
2026-04-27 13:41 55.72432 1.92431 34310 ft 458 kts 317°
2026-04-27 13:41 55.77116 1.84750 34338 ft 459 kts 317°
2026-04-27 13:42 55.81843 1.77001 34315 ft 459 kts 317°
2026-04-27 13:42 55.86529 1.69268 34316 ft 460 kts 317°
2026-04-27 13:43 55.91205 1.61517 34319 ft 458 kts 317°
2026-04-27 13:43 55.95863 1.53774 34317 ft 458 kts 317°
2026-04-27 13:44 56.00517 1.46018 34325 ft 457 kts 317°
2026-04-27 13:44 56.05163 1.38247 34325 ft 457 kts 317°
2026-04-27 13:45 56.09777 1.30503 34327 ft 458 kts 317°
2026-04-27 13:45 56.14413 1.22696 34328 ft 458 kts 317°
2026-04-27 13:46 56.19051 1.14858 34330 ft 458 kts 317°
2026-04-27 13:46 56.23672 1.07021 34327 ft 455 kts 317°
2026-04-27 13:47 56.28259 0.99213 34331 ft 453 kts 317°
2026-04-27 13:47 56.32836 0.91397 34332 ft 454 kts 317°
2026-04-27 13:48 56.37416 0.83550 34333 ft 455 kts 317°
2026-04-27 13:48 56.41997 0.75668 34338 ft 455 kts 317°
2026-04-27 13:49 56.46564 0.67761 34344 ft 455 kts 317°
2026-04-27 13:49 56.51123 0.59833 34344 ft 455 kts 317°
2026-04-27 13:50 56.55671 0.51898 34342 ft 452 kts 317°
2026-04-27 13:50 56.60185 0.43995 34345 ft 451 kts 318°
2026-04-27 13:51 56.64700 0.36065 34351 ft 452 kts 318°
2026-04-27 13:51 56.69216 0.28107 34352 ft 452 kts 317°
2026-04-27 13:52 56.73728 0.20126 34357 ft 452 kts 317°
2026-04-27 13:52 56.78232 0.12131 34357 ft 452 kts 317°